Location: Zerbst
(51.9650°N, 12.0766°E)
Time: 11:44:03
(UTC+02:00)

ISS - Pass Details

Date: 22 May 2017
Orbit: 402 x 409 km, 51.6° (Epoch: 24 May)

Event Time Altitude Azimuth Distance (km) Brightness Sun altitude
Rises 03:40:27 0° 280° (W) 2,331 -0.2 -10.4°
Reaches altitude 10° 03:42:33 10° 277° (W) 1,468 -1.3 -10.2°
Maximum altitude 03:45:48 62° 196° (SSW) 461 -3.8 -9.9°
Drops below altitude 10° 03:49:02 10° 115° (ESE) 1,460 -0.8 -9.6°
Sets 03:51:07 0° 112° (ESE) 2,316 0.2 -9.4°
